Погода в Семлячики

Погода в Семлячики : погода сейчас, прогноз погоды и архив. Всё, что Вы хотите узнать о погоде в Семлячики!

Хотите узнать прогноз погоды в Семлячики? Тогда Вам сюда: Погода в Семлячики

Поиск расширенной информации на нашем сайте:

Другие новости

Новости СМИ2

Главная страница сайта

Новости сайта

03.07.2017

Напоминаем, что на нашем специализированном сайте Метеоцентр.Азия вы можете получить высокодетализированные автоматические прогнозы погоды по пунктам России, СНГ и мира в авиационном формате (включающие направление и скорость ветра, видимость, явления погоды, количество и форму облачности, нижнюю и верхнюю границу облачности).

Рекомендуем: Транспортные услуги по Перевозке пассажиров.

Погода в Семлячики - сегодня

Время (UTC), дата Ветер
(°,м/с) 
Видим.   Явления Облачность Т
(°С)
Тd
(°С)
f(%) Тe
(°С)
Pmin
(гПа)
dP
(гПа)
Po
(мм)
O2
(г/м3)
Тmin Tmax R s Состояние
почвы
15 09.12.17 060 (СВ) 16-19{21}  2000 м  слаб. ливневой снег  10/10 200 м кучево-дожд. 
[Cb cap]
+0.3 +0.3 100 -6  986.2  -4  737  297           
18 09.12.17 050 (СВ) 16-20{22}  2000 м  слаб. ливневой снег  10/10 200 м кучево-дожд. 
[Cb cap]
+0.3 +0.3 100 -6  984  -2.2  736  296           
21 09.12.17 040 (СВ) 14-16{21}  2000 м  слаб. ливневой снег  10/10 200 м кучево-дожд. 
[Cb cap]
+0.1 +0.1 100 -6  984  736  296  -0.2    17  неравномерный
мокрый или
старый снег
100% 
00 10.12.17 050 (СВ) 19-23{23}  1000 м  ливневой снег  10/10 200 м кучево-дожд. 
[Cb cap]
+0.2 +0.2 100 -7  984.3  0.3  736  296           
03 10.12.17 030 (СВ) 11-15{26}  1000 м  ливневой снег  10/10 200 м кучево-дожд. 
[Cb cap]
+0.1 +0.1 100 -5  984.3  736  296           
06 10.12.17 030 (СВ) 16-21{24}  20000 м  в посл. час ливневой снег  10/10 200 м 
[St]
+1 -1.3 85 -5  984.6  0.3  736  296           
09 10.12.17 030 (СВ) 13-19{23}  2000 м  слаб. ливневой снег  10/10 200 м кучево-дожд. 
[Cb cap]
+1.4 -0.6 87 -4  985.6  737  295    +2  26     
12 10.12.17 030 (СВ) 13-19{22}  20000 м  слаб. ливневой снег  10/10 200 м кучево-дожд. 
[Cb cap]
+1.3 -0.1 90 -4  987.9  2.3  738  296           
15 10.12.17 030 (СВ) 13-18{20}  2000 м  слаб. ливневой снег  10/10 200 м кучево-дожд. 
[Cb cap]
+1.5 -0.1 89 -4  990.8  2.8  741  297           
18 10.12.17 030 (СВ) 16-23{24}  20000 м  в посл. час ливневой снег  10/10 200 м 
[St]
+1.6 +0 89 -4  994.6  3.9  743  298           
21 10.12.17 030 (СВ) 16-20{23}  10 км  слаб. ливневой дождь  10/10 200 м кучево-дожд. 
[Cb cap]
+1.7 +0.1 89 -4  999.5  4.8  747  299  +1.1    неравномерный
мокрый или
старый снег
100% 
00 11.12.17 030 (СВ) 13-17{20}  10 км  слаб. ливневой дождь  10/10 200 м кучево-дожд. 
[Cb cap]
+1.4 +0.3 92 -4  1003.7  4.2  750  301           
03 11.12.17 030 (СВ) 11-15{19}  4000 м  слаб. ливневой дождь со снегом  10/10 200 м кучево-дожд. 
[Cb cap]
+1.3 +0.4 94 -4  1007.4  3.8  753  302           
06 11.12.17 040 (СВ) 11-14{18}  20000 м  в посл. час ливневой снег  10/10 200 м 
[St]
+1.6 +0.1 90 -3  1012.2  4.7  757  303           
09 11.12.17 040 (СВ) 11-14{17}  20000 м    10/10 300 м 
[St]
+1.2 -0.3 90 -4  1015.9  3.7  759  305    +1.8     
12 11.12.17 030 (СВ) 8{14}  20000 м    10/10 300 м 
[St]
+1.2 -1.2 84 -3  1018.5  2.6  761  306           
15 11.12.17 030 (СВ) 7{11}  20000 м    10/10 600 м 
[Sc]
+1 -1.5 83 -3  1020.4  1.9  763  306           
18 11.12.17 030 (СВ) 20000 м    8/8 600 м 
[Sc]
+0.7 -1.9 83 -3  1021.6  1.2  764  307           
21 11.12.17 030 (СВ) 20000 м    6/6 600 м 
[Sc]
+0.3 -2.5 81 -3  1022.4  0.8  764  308  +0.3      неравномерный
мокрый или
старый снег
100% 
00 12.12.17 030 (СВ) 8-10{10}  20000 м    9/0 средняя, верхняя 
[Sc|Ac trans|Ci fib]
+1.1 -2.8 75 -3  1021.2  -1.3  763  307  +0.2         
03 12.12.17 040 (СВ) 9-11{14}  20000 м    8/8 600 м 
[Sc]
+0.6 -2.7 79 -4  1018.2  -2.9  761  306           
06 12.12.17 040 (СВ) 10-14{16}  20000 м  {ливн. осадки}  10/10 600 м 
[Sc]
-0.1 -0.8 95 -5  1016.1  -2.1  760  306           
09 12.12.17 060 (СВ) 10-14{16}  2000 м  слаб. ливневой снег  10/10 300 м кучево-дожд. 
[Cb cap]
-0.3 -0.5 99 -5  1013.4  -2.7  758  306    +1.1     
12 12.12.17 040 (СВ) 12-15{17}  2000 м  слаб. ливневой снег  10/10 300 м кучево-дожд. 
[Cb cap]
-0.9 -1.2 98 -7  1009.7  -3.8  755  305           
15 12.12.17 070 (В) 15-20{20}  2000 м  слаб. ливневой снег  10/10 300 м кучево-дожд. 
[Cb cap]
-0.4 -0.5 99 -7  1006.2  -3.4  752  304           
Время (UTC), дата Ветер
(°,м/с) 
Видим.   Явления Облачность Т
(°С)
Тd
(°С)
f(%) Тe
(°С)
Pmin
(гПа)
dP
(гПа)
Po
(мм)
O2
(г/м3)
Тmin Tmax R s Состояние
почвы

Для получения пояснительной информации подведите курсор к названию столбца.

ПОГОДА в Семлячики - архив

Всё, что Вы хотите узнать о погоде в Семлячики - удобно и подробно!

Выберите нужную дату (начиная с 1 января 2015* года) и нажмите кнопку "Найти".
Будут отображены архивные сводки погоды по пункту Семлячики, начиная с указанной даты.


Отображать данные в формате CSV (для использования в таблицах Excel)


Внимание! Наш архив погоды предназначен исключительно для личного некоммерческого использования в познавательных целях. Если Вам необходимы официальные справки о состоянии погоды (для производственных, юридических, коммерческих и т.п. целей), обращайтесь в органы Росгидромета.

*Примечание: данная дата относится к архиву по метеостанциям СССР (Россия, СНГ, Балтия).
Архив по метеостанциям Зарубежной Европы и Азии (кроме Китая) хранится 10 дней, по другим регионам земного шара (Китай, Африка, Америка, Австралия, Океания) - 1 день.

Семлячики - район местоположения метеостанции


Название, широта, долгота, высота метеостанции:
Семлячики 54.1°ш. 160°д. 27 м над ур. моря [Российская Федерация]

Дополнительная информация

В oтличие oт бoльшинства пoгoдных сайтoв мы публикуем пoдрoбную метеoинфoрмацию в детальнoм прoфессиoнальнoм фoрмате.

Характеристики температуры и влажнoсти вoздуха измеряются на высoте 2 м в тени вдали oт зданий и деревьев.
Скoрoсть ветра измеряется на высoте 10 м (на урoвне рoста челoвека скoрoсть ветра ниже в 1.5-2 раза). Если метеoстанция нахoдится в гoрoде или в лесу, тo скoрoсть ветра занижена на 2-4 м/с пo сравнению с oткрытым местoм. Скoрoсть ветра над акватoриями крупных рек и oзёр, а также на вершинах хoлмoв на 2-5 м/с выше, чем в oбычных услoвиях.
Атмoсфернoе давление в разных тoчках местнoсти мoжет значительнo oтличаться oт давления на метеoстанции, в зависимoсти oт услoвий рельефа (при пoдъёме на 10 м давление пoнижается примернo на 1 мм рт.ст.).